[[{"header":{"parameterUnit":"m.s-1","parameterCategory":1,"la1":30.2991,"la2":30.254,"lo1":-89.0895,"lo2":-89.0444,"dy":0.0017,"dx":0.0017,"nx":28,"ny":28,"refTime":"2026-01-30T03:00:00:Z","depth":0,"parameterNumber":2,"parameterNumberName":"U-component_of_WINDS"},"data":[0,0,0,0,0,0,0,0,0,0,0,0,0,0,0,0,0,0,0,0,0,0,0,0,0,0,0,0,0,0,0,0,0,0,0,0,0,0,0,0,0,0,0,0,0,0,0,0,0,0,0,0,0,0,0,0,0,0,4.3219,4.3219,0,4.33,4.3301,4.3302,4.3281,4.3279,4.3278,4.3276,4.3358,4.3362,4.3365,0,0,0,0,0,0,0,0,0,0,0,0,0,4.3044,4.3047,4.3218,4.3219,4.3221,4.33,4.3301,4.3302,4.3281,4.3279,4.3277,4.3275,4.3357,4.3361,4.3366,0,0,0,0,0,0,0,0,0,0,0,0,0,4.3122,4.3048,4.3218,4.322,4.322,4.33,4.3301,4.3303,4.3282,4.3279,4.3277,4.3274,4.3355,4.3361,4.3366,4.3449,0,0,4.3383,4.3386,0,0,0,0,0,0,0,0,4.3118,4.3128,4.3218,4.322,4.3221,4.3278,4.327,4.3352,4.3282,4.3258,4.3276,4.3273,4.3333,4.334,4.3361,4.3453,4.3456,4.3384,4.3387,4.3389,4.3391,0,0,0,0,0,0,0,4.3112,4.3125,4.3251,4.322,4.3221,4.3216,4.3224,4.3285,4.3308,4.326,4.3259,4.3269,4.3333,4.3356,4.3363,4.3458,4.3384,4.3388,4.3392,4.3394,4.3624,4.3627,0,0,0,0,0,0,4.3106,4.312,4.3248,4.3253,4.3162,4.3221,4.3231,4.3262,4.3308,4.3312,4.3271,4.3268,4.3348,4.3356,4.3366,4.3467,4.3389,4.3395,4.3398,4.3621,4.3625,4.3628,0,0,0,0,0,0,4.3102,4.3118,4.3245,4.3187,4.3202,4.3227,4.3262,4.3265,4.3287,4.3316,4.332,4.329,4.3346,4.3358,4.3429,4.3469,4.3397,4.3402,4.3618,4.3622,4.3626,4.367,0,0,0,0,0,0,4.3097,4.3116,4.3148,4.3187,4.3206,4.3307,4.3265,4.3268,4.3297,4.3294,4.3334,4.3339,4.3345,4.3421,4.3435,4.3476,4.3406,4.3614,4.362,4.3625,4.3665,4.3675,4.3683,0,0,0,0,0,4.3091,4.3156,4.3149,4.3165,4.3245,4.3309,4.332,4.3326,4.33,4.3332,4.3351,4.3337,4.3463,4.3429,4.3444,4.3487,4.3612,4.3618,4.3624,4.366,4.3673,4.3683,0,0,0,0,0,0,4.3119,4.3161,4.3154,4.3234,4.3268,4.3306,4.3346,4.3339,4.3381,4.3375,4.3381,4.3391,4.3464,4.3483,4.3443,4.3571,4.3534,4.3543,4.3556,4.3568,4.3577,4.3571,4.3411,0,0,0,0,0,4.3134,4.3183,4.3217,4.3284,4.3302,4.3321,4.3349,4.3352,4.3387,4.3401,4.3425,4.346,4.3508,4.3539,4.3584,4.3668,4.3677,4.3705,4.3715,4.3722,4.373,4.3778,4.3791,4.3648,4.3648,4.3648,0,0,4.3166,4.3195,4.3225,4.329,4.3317,4.3368,4.3333,4.3387,4.3425,4.3409,4.3479,4.3498,4.3537,4.3616,4.3651,4.3634,4.3772,4.373,4.3736,4.374,4.3785,4.3799,4.3811,4.3653,4.3652,4.3651,0,0,4.3251,4.3277,4.3337,4.3365,4.3408,4.3421,4.3435,4.3474,4.3487,4.3557,4.3547,4.3592,4.3673,4.3702,4.3728,4.3827,4.3816,4.3842,4.389,4.3936,4.3948,4.3958,4.3994,4.4007,4.385,4.385,4.385,0,4.3285,4.3361,4.3368,4.3424,4.3454,4.3444,4.3504,4.3531,4.3586,4.3606,4.3586,4.369,4.3716,4.3802,4.3826,4.3847,4.3864,4.3836,4.3945,4.3956,4.3965,4.4,4.4013,4.3853,4.3852,4.3852,4.3852,0,4.3402,4.3455,4.3498,4.3552,4.3587,4.3645,4.3661,4.3695,4.3695,4.3711,4.3783,4.3814,4.3867,4.3888,4.3887,4.3974,4.3962,4.3944,4.3906,4.3981,4.4014,4.4027,4.3857,4.3856,4.3855,4.3854,0,0,4.3503,4.3564,4.3579,4.3605,4.3652,4.3693,4.3752,4.3804,4.3834,4.3872,4.3922,4.3993,4.3977,4.4006,4.4009,4.405,4.4128,4.4027,4.4028,4.4045,4.4228,4.4241,4.4256,4.4122,4.4125,4.4127,4.4225,0,4.3593,4.3696,4.3706,4.3798,4.3848,4.3841,4.3892,4.3927,4.3944,4.3989,4.4007,4.4057,4.4032,4.405,4.409,4.411,4.4165,4.4103,4.4169,4.4171,4.4159,4.4273,4.4287,4.4378,4.4237,4.4239,4.4241,0,4.3709,4.3753,4.3852,4.3894,4.3916,4.3961,4.4011,4.4054,4.4094,4.4104,4.4138,4.4137,4.4198,4.416,4.4244,4.4202,4.423,4.4244,4.4248,4.4254,4.421,4.4283,4.4407,4.4421,4.4261,4.426,4.4258,0,4.3775,4.3859,4.3929,4.3951,4.4002,4.4035,4.4057,4.4095,4.4127,4.4171,4.4192,4.4242,4.4269,4.4308,4.4321,4.4292,4.4406,4.4368,4.4416,4.4416,4.444,4.4438,4.4571,4.4458,4.4457,4.4457,4.4457,0,4.3873,4.3934,4.3959,4.4002,4.4071,4.4082,4.4149,4.417,4.4204,4.4252,4.4248,4.4293,4.4307,4.4355,4.4366,4.4435,4.4447,4.4457,4.4459,4.4457,4.4456,4.4475,4.4469,4.4461,4.446,4.4459,4.4459,0,4.3957,4.3977,4.4053,4.4096,4.4109,4.4157,4.4194,4.4236,4.4253,4.4313,4.4328,4.4355,4.4411,4.4428,4.4495,4.4502,4.4584,4.458,4.4571,4.4571,4.4618,4.4614,4.4768,4.4789,4.4662,4.4663,4.4664,0,4.4019,4.4066,4.4114,4.4147,4.4171,4.4223,4.4256,4.4269,4.4304,4.4355,4.4391,4.4447,4.4492,4.4582,4.4607,4.4659,4.4657,4.4707,4.4664,4.4662,4.4658,4.4655,4.4661,4.4715,4.4716,4.4717,4.4718,0,4.4126,4.4134,4.4182,4.4234,4.4274,4.4316,4.4356,4.4382,4.4402,4.4441,4.4499,4.4534,4.4604,4.466,4.4713,4.4737,4.4731,4.4732,4.4746,4.4744,4.4737,4.4743,4.4593,4.4728,4.4727,4.4726,4.4726,4.4725,4.4201,4.4243,4.4285,4.4339,4.4371,4.4409,4.4451,4.4475,4.4524,4.4582,4.4587,4.465,4.4691,4.4763,4.4789,4.4839,4.4824,4.4844,4.485,4.4854,4.4859,4.473,4.4849,4.4848,4.4848,4.4848,4.4848,0,4.4309,4.4336,4.4386,4.4443,4.4486,4.4478,4.4523,4.4559,4.4615,4.4654,4.47,4.4767,4.4822,4.4853,4.4908,4.4942,4.4941,4.4956,4.4954,4.496,4.4868,4.4851,4.4956,4.4956,4.4956,4.4956,4.4956,4.4956,4.437,4.4441,4.4454,4.4542,4.4569,4.4631,4.4657,4.4693,4.4725,4.4801,4.4847,4.4867,4.4903,4.4961,4.5012,4.502,4.504,4.5057,4.5063,4.4977,4.4966,4.4955,4.4939,4.5061,4.5061,4.5151,4.5152,4.5152]},{"header":{"parameterUnit":"m.s-1","parameterCategory":1,"la1":30.2991,"la2":30.254,"lo1":-89.0895,"lo2":-89.0444,"dy":0.0017,"dx":0.0017,"nx":28,"ny":28,"refTime":"2026-01-30T03:00:00:Z","depth":0,"parameterNumber":3,"parameterNumberName":"V-component_of_WINDS"},"data":[0,0,0,0,0,0,0,0,0,0,0,0,0,0,0,0,0,0,0,0,0,0,0,0,0,0,0,0,0,0,0,0,0,0,0,0,0,0,0,0,0,0,0,0,0,0,0,0,0,0,0,0,0,0,0,0,0,0,-10.1302,-10.1304,0,-10.15,-10.1502,-10.1504,-10.1466,-10.1463,-10.1459,-10.1456,-10.1651,-10.1659,-10.1668,0,0,0,0,0,0,0,0,0,0,0,0,0,-10.0886,-10.0894,-10.1302,-10.1304,-10.1307,-10.15,-10.1502,-10.1505,-10.1467,-10.1463,-10.1458,-10.1454,-10.1648,-10.1658,-10.1668,0,0,0,0,0,0,0,0,0,0,0,0,0,-10.1073,-10.0896,-10.1301,-10.1311,-10.1314,-10.1499,-10.1502,-10.1506,-10.1468,-10.1463,-10.1457,-10.1452,-10.1645,-10.1657,-10.167,-10.1855,0,0,-10.1709,-10.1714,0,0,0,0,0,0,0,0,-10.1063,-10.1088,-10.1307,-10.1311,-10.1315,-10.1453,-10.1427,-10.1623,-10.1469,-10.1409,-10.1456,-10.145,-10.1589,-10.1606,-10.1655,-10.1864,-10.1873,-10.171,-10.1718,-10.1723,-10.1727,0,0,0,0,0,0,0,-10.105,-10.108,-10.138,-10.1311,-10.1315,-10.1304,-10.1325,-10.1464,-10.1526,-10.1414,-10.1412,-10.1436,-10.159,-10.1642,-10.1659,-10.1875,-10.171,-10.1721,-10.1729,-10.1734,-10.2249,-10.2255,0,0,0,0,0,0,-10.1034,-10.1069,-10.1374,-10.1386,-10.1173,-10.1316,-10.1339,-10.1414,-10.1525,-10.1537,-10.1441,-10.1434,-10.1623,-10.1644,-10.1666,-10.1891,-10.1723,-10.1735,-10.1742,-10.2243,-10.225,-10.2257,0,0,0,0,0,0,-10.1026,-10.1062,-10.1366,-10.1227,-10.1265,-10.1329,-10.1413,-10.1421,-10.1473,-10.1545,-10.1555,-10.1483,-10.162,-10.1648,-10.1809,-10.1898,-10.1741,-10.1752,-10.2236,-10.2245,-10.2254,-10.2343,0,0,0,0,0,0,-10.1014,-10.1059,-10.1131,-10.1229,-10.1273,-10.1508,-10.1419,-10.1428,-10.1496,-10.1489,-10.1588,-10.1599,-10.1618,-10.1791,-10.1822,-10.1912,-10.1762,-10.2228,-10.224,-10.2251,-10.2333,-10.2354,-10.2373,0,0,0,0,0,-10.0999,-10.1146,-10.1135,-10.1172,-10.1365,-10.1513,-10.1538,-10.1559,-10.1503,-10.1576,-10.1622,-10.1595,-10.1883,-10.1807,-10.1842,-10.1938,-10.2223,-10.2237,-10.225,-10.2324,-10.235,-10.2373,0,0,0,0,0,0,-10.1053,-10.1159,-10.1148,-10.1331,-10.1414,-10.1507,-10.1598,-10.1586,-10.1684,-10.1673,-10.1693,-10.1715,-10.188,-10.1925,-10.1839,-10.2124,-10.2045,-10.2066,-10.2089,-10.2115,-10.2134,-10.212,-10.1773,0,0,0,0,0,-10.1087,-10.1201,-10.1287,-10.144,-10.1483,-10.1534,-10.1599,-10.1609,-10.1694,-10.1728,-10.1786,-10.1868,-10.1977,-10.2048,-10.2152,-10.2339,-10.236,-10.2422,-10.2442,-10.2458,-10.2476,-10.258,-10.2609,-10.2302,-10.2302,-10.2301,0,0,-10.1157,-10.1229,-10.1299,-10.1453,-10.1518,-10.1635,-10.1563,-10.1689,-10.1775,-10.1746,-10.1904,-10.195,-10.2042,-10.2218,-10.2298,-10.2261,-10.2567,-10.2476,-10.2488,-10.2498,-10.2597,-10.2626,-10.2652,-10.2311,-10.2309,-10.2308,0,0,-10.1345,-10.1411,-10.1547,-10.1615,-10.1716,-10.175,-10.1782,-10.1878,-10.1909,-10.2068,-10.2049,-10.2151,-10.2338,-10.2406,-10.2464,-10.2681,-10.2661,-10.2714,-10.2819,-10.292,-10.2944,-10.2966,-10.3044,-10.3072,-10.2732,-10.2732,-10.2733,0,-10.1418,-10.1595,-10.1618,-10.1747,-10.1816,-10.1799,-10.1937,-10.2001,-10.2129,-10.2176,-10.2133,-10.2369,-10.243,-10.2623,-10.2676,-10.2724,-10.2762,-10.2703,-10.2939,-10.2961,-10.2981,-10.3056,-10.3086,-10.2738,-10.2738,-10.2737,-10.2736,0,-10.1681,-10.1804,-10.1902,-10.2031,-10.211,-10.2243,-10.2285,-10.2362,-10.2366,-10.2404,-10.2566,-10.264,-10.2759,-10.2806,-10.2808,-10.3,-10.2973,-10.2935,-10.2855,-10.3017,-10.3087,-10.3116,-10.2747,-10.2745,-10.2743,-10.2741,0,0,-10.1906,-10.2049,-10.2085,-10.2144,-10.2256,-10.235,-10.2482,-10.2603,-10.2669,-10.2759,-10.287,-10.303,-10.2996,-10.3063,-10.3074,-10.3162,-10.3331,-10.3113,-10.3115,-10.3152,-10.3547,-10.3576,-10.3609,-10.3319,-10.3324,-10.3329,-10.354,0,-10.2105,-10.2341,-10.2367,-10.2577,-10.2692,-10.2679,-10.2794,-10.2874,-10.2913,-10.3015,-10.3057,-10.3171,-10.3117,-10.3158,-10.3245,-10.3292,-10.3411,-10.3277,-10.3421,-10.3426,-10.3399,-10.3646,-10.3676,-10.3872,-10.3568,-10.3572,-10.3576,0,-10.2368,-10.247,-10.2692,-10.2791,-10.2839,-10.2943,-10.3056,-10.3154,-10.3245,-10.3267,-10.3344,-10.3344,-10.3479,-10.3395,-10.3582,-10.3491,-10.3551,-10.3583,-10.3591,-10.3605,-10.351,-10.3667,-10.3935,-10.3965,-10.3619,-10.3616,-10.3613,0,-10.2511,-10.2703,-10.2862,-10.2913,-10.3031,-10.3105,-10.3157,-10.3243,-10.3314,-10.3413,-10.3459,-10.3571,-10.3632,-10.3718,-10.3748,-10.3684,-10.3934,-10.3852,-10.3956,-10.3955,-10.4008,-10.4005,-10.429,-10.4047,-10.4046,-10.4046,-10.4045,0,-10.2731,-10.2867,-10.2929,-10.3026,-10.3179,-10.3207,-10.3357,-10.3406,-10.3483,-10.3589,-10.3583,-10.3682,-10.3716,-10.382,-10.3844,-10.3995,-10.4022,-10.4044,-10.4049,-10.4045,-10.4042,-10.4084,-10.4072,-10.4054,-10.4052,-10.4051,-10.4049,0,-10.2916,-10.2963,-10.3135,-10.3235,-10.3263,-10.3372,-10.3456,-10.355,-10.3589,-10.3723,-10.3756,-10.3816,-10.3939,-10.3978,-10.4125,-10.4141,-10.4319,-10.4311,-10.4289,-10.429,-10.4392,-10.4382,-10.4714,-10.476,-10.4486,-10.4489,-10.4491,0,-10.3053,-10.3159,-10.3271,-10.3344,-10.34,-10.3515,-10.359,-10.3622,-10.3699,-10.3812,-10.3892,-10.4015,-10.4114,-10.4311,-10.4367,-10.448,-10.4475,-10.4584,-10.4492,-10.4486,-10.4478,-10.4471,-10.4482,-10.4601,-10.4604,-10.4606,-10.4608,0,-10.3292,-10.3311,-10.3419,-10.3537,-10.3627,-10.372,-10.381,-10.3869,-10.3914,-10.4,-10.4128,-10.4206,-10.4359,-10.448,-10.4596,-10.4647,-10.4636,-10.4637,-10.4667,-10.4664,-10.4648,-10.4659,-10.4337,-10.4629,-10.4627,-10.4625,-10.4624,-10.4623,-10.3458,-10.3553,-10.3648,-10.3769,-10.3841,-10.3926,-10.402,-10.4073,-10.418,-10.4309,-10.4321,-10.4459,-10.4548,-10.4703,-10.4761,-10.4868,-10.4837,-10.488,-10.4891,-10.4901,-10.491,-10.4631,-10.4889,-10.4888,-10.4888,-10.4887,-10.4887,0,-10.3698,-10.3759,-10.3871,-10.3999,-10.4095,-10.4079,-10.4178,-10.4259,-10.4381,-10.4467,-10.4567,-10.4714,-10.4833,-10.4899,-10.5018,-10.5091,-10.5089,-10.5121,-10.5116,-10.5128,-10.4931,-10.4894,-10.5121,-10.5121,-10.5121,-10.5121,-10.5121,-10.5121,-10.3834,-10.3993,-10.4023,-10.4218,-10.4278,-10.4416,-10.4474,-10.4552,-10.4621,-10.4787,-10.4887,-10.4931,-10.5009,-10.5134,-10.5242,-10.5258,-10.5302,-10.5338,-10.5351,-10.5166,-10.5142,-10.5119,-10.5084,-10.5347,-10.5348,-10.554,-10.5541,-10.5543]}]]